Olympia, WA
on Wednesday, December 26, 2012

Wednesday
Previous Day Next Day
Daily Summary
 ActualAverageRecord
Temperature
Mean Temperature °F 38°F  
Max Temperature 44°F 44°F 62°F (1980)
Min Temperature 35°F 33°F 17°F (1948)
Degree Days
Heating Degree Days 25 27  
Month to date heating degree days 636 691  
Since 1 July heating degree days 2023 2136  
Cooling Degree Days 0 0  
Month to date cooling degree days 0 0  
Year to date cooling degree days 82 106  
Moisture
Dew Point 38°F   
Average Humidity 95    
Maximum Humidity 100    
Minimum Humidity 89    
Precipitation
Precipitation 0.16 in 0.24 in 2.45 in (1980)
Month to date precipitation 9.56 6.33  
Year to date precipitation 59.41 48.87  
Wind
Wind Speed 8 mph   
Max Wind Speed 16 mph   
Max Gust Speed 19 mph   
Visibility 6 miles   
Events Rain   

Key: T is trace of precipitation, MM is missing value
Source: NWS Daily Summary
Time(PST)TemperatureDew PointHumidity Pressure Visibility Wind DirectionWind SpeedGust SpeedPrecipitationEvents Conditions
12:05 AM 37.0°F 36.0°F 96% 29.70 in 2.0 miles Calm Calm - 0.00 in Rain Light Rain
12:54 AM 37.0°F 37.0°F 100% 29.71 in 2.5 miles Calm Calm - 0.00 in   Overcast
1:13 AM 37.0°F 36.0°F 96% 29.70 in 2.5 miles South 3.5 mph - 0.01 in Rain Light Rain
1:54 AM 37.0°F 36.0°F 96% 29.71 in 2.0 miles South 3.5 mph - 0.03 in Rain Light Rain
2:01 AM 37.0°F 37.0°F 100% 29.71 in 2.0 miles SSE 3.5 mph - 0.00 in Rain Light Rain
2:08 AM 37.0°F 37.0°F 100% 29.71 in 1.8 miles SSW 3.5 mph - 0.01 in Rain Light Rain
2:17 AM 37.0°F 37.0°F 100% 29.71 in 2.5 miles Calm Calm - 0.01 in Rain Light Rain
2:54 AM 37.0°F 37.0°F 100% 29.72 in 3.0 miles WSW 3.5 mph - 0.03 in Rain Light Rain
3:31 AM 37.4°F 37.4°F 100% 29.71 in 7.0 miles Calm Calm - N/A   Overcast
3:54 AM 37.0°F 37.0°F 100% 29.72 in 3.0 miles Calm Calm - 0.00 in Rain Light Rain
4:34 AM 37.0°F 37.0°F 100% 29.71 in 2.5 miles Calm Calm - 0.00 in   Overcast
4:41 AM 37.9°F 37.0°F 97% 29.72 in 5.0 miles Calm Calm - 0.00 in   Overcast
4:54 AM 37.9°F 37.0°F 97% 29.73 in 5.0 miles Calm Calm - 0.00 in Rain Light Rain
5:12 AM 37.9°F 37.0°F 97% 29.72 in 6.0 miles SW 3.5 mph - 0.00 in Rain Light Rain
5:54 AM 37.9°F 37.0°F 97% 29.73 in 6.0 miles Calm Calm - 0.01 in   Overcast
6:35 AM 36.0°F 36.0°F 100% 29.73 in 2.0 miles Calm Calm - N/A   Overcast
6:37 AM 36.0°F 36.0°F 100% 29.73 in 1.2 miles Calm Calm - N/A   Overcast
6:45 AM 36.0°F 35.1°F 97% 29.74 in 0.8 miles Calm Calm - N/A   Mostly Cloudy
6:54 AM 35.1°F 35.1°F 100% 29.75 in 1.0 miles Calm Calm - N/A   Mostly Cloudy
7:01 AM 35.1°F 35.1°F 100% 29.74 in 0.8 miles Calm Calm - N/A   Overcast
7:08 AM 36.0°F 35.1°F 97% 29.74 in 1.2 miles Calm Calm - N/A   Overcast
7:14 AM 36.0°F 36.0°F 100% 29.74 in 2.0 miles Calm Calm - N/A   Overcast
7:22 AM 36.0°F 36.0°F 100% 29.74 in 1.2 miles Calm Calm - N/A   Overcast
7:39 AM 35.1°F 35.1°F 100% 29.74 in 1.5 miles Calm Calm - N/A   Overcast
7:51 AM 35.6°F 35.6°F 100% 29.75 in 2.0 miles Calm Calm - N/A   Overcast
7:54 AM 36.0°F 35.1°F 97% 29.76 in 2.5 miles Calm Calm - N/A   Overcast
7:58 AM 36.0°F 35.1°F 97% 29.75 in 1.8 miles Calm Calm - N/A   Overcast
8:02 AM 36.0°F 36.0°F 100% 29.75 in 3.0 miles WSW 3.5 mph - N/A   Overcast
8:28 AM 37.9°F 37.0°F 97% 29.76 in 3.0 miles WSW 4.6 mph - N/A   Overcast
8:54 AM 39.0°F 37.9°F 96% 29.78 in 9.0 miles SW 5.8 mph - N/A   Overcast
8:56 AM 39.0°F 37.9°F 96% 29.77 in 10.0 miles WSW 5.8 mph - N/A   Overcast
9:54 AM 41.0°F 39.0°F 93% 29.79 in 10.0 miles SSW 10.4 mph - 0.00 in   Overcast
10:54 AM 43.0°F 39.9°F 89% 29.80 in 10.0 miles South 11.5 mph - N/A   Overcast
11:44 AM 43.0°F 41.0°F 93% 29.79 in 10.0 miles South 12.7 mph - N/A   Overcast
11:54 AM 43.0°F 39.9°F 89% 29.79 in 10.0 miles South 11.5 mph - N/A   Mostly Cloudy
12:54 PM 43.0°F 41.0°F 93% 29.79 in 10.0 miles South 13.8 mph - 0.00 in Rain Light Rain
1:17 PM 43.0°F 41.0°F 93% 29.79 in 9.0 miles South 10.4 mph - 0.00 in Rain Light Rain
1:33 PM 43.0°F 41.0°F 93% 29.79 in 10.0 miles South 10.4 mph - 0.00 in   Overcast
1:54 PM 43.0°F 41.0°F 93% 29.80 in 9.0 miles South 11.5 mph - 0.00 in Rain Light Rain
1:59 PM 43.0°F 41.0°F 93% 29.79 in 9.0 miles South 12.7 mph - 0.00 in Rain Light Rain
2:54 PM 43.0°F 41.0°F 93% 29.81 in 9.0 miles South 11.5 mph - 0.01 in   Overcast
3:54 PM 42.1°F 39.9°F 92% 29.82 in 6.0 miles South 10.4 mph - 0.04 in Rain Light Rain
4:10 PM 42.1°F 39.9°F 92% 29.82 in 8.0 miles South 10.4 mph - 0.00 in Rain Light Rain
4:54 PM 42.1°F 39.9°F 92% 29.83 in 10.0 miles South 10.4 mph - 0.01 in Rain Light Rain
5:54 PM 42.1°F 39.9°F 92% 29.84 in 9.0 miles SSW 9.2 mph - 0.01 in   Overcast
6:54 PM 42.1°F 39.9°F 92% 29.86 in 7.0 miles South 11.5 mph - 0.00 in Rain Light Rain
7:09 PM 42.1°F 39.9°F 92% 29.86 in 7.0 miles South 9.2 mph - 0.00 in Rain Light Rain
7:24 PM 42.1°F 39.9°F 92% 29.86 in 8.0 miles South 11.5 mph - 0.01 in Rain Light Rain
7:54 PM 42.1°F 39.9°F 92% 29.87 in 9.0 miles SSW 10.4 mph - 0.01 in Rain Light Rain
8:54 PM 42.1°F 39.0°F 89% 29.89 in 9.0 miles SSW 11.5 mph - 0.01 in Rain Light Rain
9:54 PM 41.0°F 39.9°F 96% 29.91 in 9.0 miles South 11.5 mph - 0.00 in Rain Light Rain
10:54 PM 41.0°F 39.9°F 96% 29.93 in 9.0 miles South 11.5 mph - 0.00 in   Overcast
11:54 PM 41.0°F 39.0°F 93% 29.94 in 10.0 miles SSW 12.7 mph - 0.00 in Rain Light Rain
Moon Phase
Dec. 26 Dec. 28 Jan. 04 Jan. 11 Jan. 18
Sunrise:07:56 AM (PST) Moon Rise:03:28 PM (PST)12/26
Sunset:04:28 PM (PST) Moon Set:06:22 AM (PST)12/26

Copyright © 2014 The Weather Underground, Inc.